Location: Unspecified
(0.0000°N, 0.0000°E)
Time: 15:40:23
(UTC+00:00)

A-11 Canister half - Pass Details

Date: 05 October 2023
Orbit: 1514 x 1686 km, 47.2° (Epoch: 05 December)

Event Time Altitude Azimuth Distance (km) Brightness Sun altitude
Rises 03:56:33 0° 277° (W) 4,668 - -27.9°
Reaches altitude 10° 04:01:41 10° 253° (WSW) 3,712 - -26.6°
Maximum altitude 04:06:03 14° 224° (SW) 3,429 - -25.5°
Exits shadow 04:06:58 14° 218° (SW) 3,449 10.5 -25.3°
Drops below altitude 10° 04:10:30 10° 196° (SSW) 3,772 10.9 -24.4°
Sets 04:15:54 0° 172° (S) 4,799 11.8 -23.1°
